TimeMDT,TemperatureF,Dew PointF,Humidity,Sea Level PressureIn,VisibilityMPH,Wind Direction,Wind SpeedMPH,Gust SpeedMPH,PrecipitationIn,Events,Conditions,WindDirDegrees,DateUTC
12:53 AM,32.0,19.9,61,30.16,10.0,NNW,11.5,-,N/A,,Overcast,330,2013-03-12 06:53:00
1:53 AM,32.0,21.0,64,30.20,10.0,NNW,9.2,-,N/A,,Overcast,330,2013-03-12 07:53:00
2:53 AM,32.0,21.9,66,30.22,10.0,NNW,16.1,-,N/A,,Overcast,340,2013-03-12 08:53:00
3:53 AM,28.9,21.0,72,30.22,10.0,WNW,18.4,25.3,N/A,,Overcast,300,2013-03-12 09:53:00
4:53 AM,28.0,21.0,75,30.25,10.0,WNW,17.3,-,N/A,,Overcast,300,2013-03-12 10:53:00
5:53 AM,26.1,19.9,78,30.28,10.0,WNW,13.8,-,N/A,,Scattered Clouds,300,2013-03-12 11:53:00
6:53 AM,24.1,19.0,81,30.32,10.0,NW,11.5,-,N/A,,Clear,310,2013-03-12 12:53:00
7:53 AM,27.0,19.0,72,30.33,10.0,NNW,15.0,-,N/A,,Clear,330,2013-03-12 13:53:00
8:53 AM,30.0,19.0,64,30.34,10.0,NNW,19.6,25.3,N/A,,Clear,330,2013-03-12 14:53:00
9:53 AM,33.1,14.0,46,30.35,10.0,NNW,23.0,29.9,N/A,,Clear,340,2013-03-12 15:53:00
10:53 AM,35.1,12.0,39,30.35,10.0,NNW,23.0,28.8,N/A,,Clear,340,2013-03-12 16:53:00
11:53 AM,37.0,14.0,39,30.34,10.0,NNW,18.4,26.5,N/A,,Clear,330,2013-03-12 17:53:00
12:53 PM,39.9,15.1,36,30.32,10.0,WNW,16.1,24.2,N/A,,Clear,300,2013-03-12 18:53:00
1:53 PM,42.1,15.1,34,30.29,10.0,NW,16.1,23.0,N/A,,Clear,310,2013-03-12 19:53:00
2:53 PM,44.1,15.1,31,30.27,10.0,NNW,16.1,27.6,N/A,,Clear,330,2013-03-12 20:53:00
3:53 PM,44.1,16.0,32,30.27,10.0,NNW,13.8,-,N/A,,Clear,330,2013-03-12 21:53:00
4:53 PM,44.1,16.0,32,30.27,10.0,NNW,11.5,-,N/A,,Clear,330,2013-03-12 22:53:00
5:53 PM,41.0,17.1,38,30.27,10.0,NW,8.1,-,N/A,,Mostly Cloudy,310,2013-03-12 23:53:00
6:53 PM,36.0,18.0,48,30.30,10.0,NNW,5.8,-,N/A,,Scattered Clouds,330,2013-03-13 00:53:00
7:53 PM,28.9,19.0,67,30.33,10.0,WSW,9.2,-,N/A,,Clear,240,2013-03-13 01:53:00
8:53 PM,25.0,19.0,78,30.33,10.0,WSW,9.2,-,N/A,,Clear,240,2013-03-13 02:53:00
9:53 PM,33.1,24.1,70,30.31,10.0,SW,8.1,-,N/A,,Overcast,230,2013-03-13 03:53:00
10:53 PM,28.9,23.0,78,30.32,10.0,WSW,6.9,-,N/A,,Clear,240,2013-03-13 04:53:00
11:53 PM,26.1,21.0,81,30.31,10.0,WSW,8.1,-,N/A,,Scattered Clouds,240,2013-03-13 05:53:00